Year,Month,Day,Hour,Minute,Value (Times are PST for windgust in km/hr)
2010,11,16,00,00,30.60
2010,11,16,00,01,27.40
2010,11,16,00,02,32.20
2010,11,16,00,03,25.70
2010,11,16,00,04,19.30
2010,11,16,00,05,20.90
2010,11,16,00,06,17.70
2010,11,16,00,07,29.00
2010,11,16,00,08,20.90
2010,11,16,00,09,16.10
2010,11,16,00,10,29.00
2010,11,16,00,11,38.60
2010,11,16,00,12,17.70
2010,11,16,00,13,19.30
2010,11,16,00,14,22.50
2010,11,16,00,15,22.50
2010,11,16,00,16,14.50
2010,11,16,00,17,24.20
2010,11,16,00,18,19.30
2010,11,16,00,19,20.90
2010,11,16,00,20,25.70
2010,11,16,00,21,38.60
2010,11,16,00,22,22.50
2010,11,16,00,23,27.40
2010,11,16,00,24,35.40
2010,11,16,00,25,19.30
2010,11,16,00,26,20.90
2010,11,16,00,27,17.70
2010,11,16,00,28,16.10
2010,11,16,00,29,24.20
2010,11,16,00,30,29.00
2010,11,16,00,31,22.50
2010,11,16,00,32,16.10
2010,11,16,00,33,11.30
2010,11,16,00,34,20.90
2010,11,16,00,35,22.50
2010,11,16,00,36,29.00
2010,11,16,00,37,24.20
2010,11,16,00,38,20.90
2010,11,16,00,39,9.60
2010,11,16,00,40,33.80
2010,11,16,00,41,30.60
2010,11,16,00,42,20.90
2010,11,16,00,43,20.90
2010,11,16,00,44,16.10
2010,11,16,00,45,24.20
2010,11,16,00,46,22.50
2010,11,16,00,47,19.30
2010,11,16,00,48,22.50
2010,11,16,00,49,24.20
2010,11,16,00,50,24.20
2010,11,16,00,51,20.90
2010,11,16,00,52,25.70
2010,11,16,00,53,25.70
2010,11,16,00,54,14.50
2010,11,16,00,55,11.30
2010,11,16,00,56,12.90
2010,11,16,00,57,17.70
2010,11,16,00,58,16.10
2010,11,16,00,59,11.30
2010,11,16,01,00,32.20
2010,11,16,01,01,19.30
2010,11,16,01,02,11.30
2010,11,16,01,03,17.70
2010,11,16,01,04,11.30
2010,11,16,01,05,12.90
2010,11,16,01,06,8.10
2010,11,16,01,07,8.10
2010,11,16,01,08,9.60
2010,11,16,01,09,14.50
2010,11,16,01,10,9.60
2010,11,16,01,11,8.10
2010,11,16,01,12,9.60
2010,11,16,01,13,4.80
2010,11,16,01,14,4.80
2010,11,16,01,15,4.80
2010,11,16,01,16,1.60
2010,11,16,01,17,6.40
2010,11,16,01,18,4.80
2010,11,16,01,19,4.80
2010,11,16,01,20,4.80
2010,11,16,01,21,4.80
2010,11,16,01,22,6.40
2010,11,16,01,23,3.20
2010,11,16,01,24,3.20
2010,11,16,01,25,9.60
2010,11,16,01,26,6.40
2010,11,16,01,27,4.80
2010,11,16,01,28,8.10
2010,11,16,01,29,6.40
2010,11,16,01,30,11.30
2010,11,16,01,31,8.10
2010,11,16,01,32,3.20
2010,11,16,01,33,3.20
2010,11,16,01,34,3.20
2010,11,16,01,35,4.80
2010,11,16,01,36,4.80
2010,11,16,01,37,4.80
2010,11,16,01,38,3.20
2010,11,16,01,39,4.80
2010,11,16,01,40,1.60
2010,11,16,01,41,1.60
2010,11,16,01,42,1.60
2010,11,16,01,43,1.60
2010,11,16,01,44,1.60
2010,11,16,01,45,1.60
2010,11,16,01,46,1.60
2010,11,16,01,47,1.60
2010,11,16,01,50,1.60
2010,11,16,01,54,1.60
2010,11,16,01,55,1.60
2010,11,16,01,56,1.60
2010,11,16,01,57,1.60
2010,11,16,01,58,1.60
2010,11,16,02,00,1.60
2010,11,16,02,01,1.60
2010,11,16,02,07,3.20
2010,11,16,02,08,3.20
2010,11,16,02,09,1.60
2010,11,16,02,10,1.60
2010,11,16,02,13,3.20
2010,11,16,02,15,1.60
2010,11,16,02,19,3.20
2010,11,16,02,20,3.20
2010,11,16,02,21,1.60
2010,11,16,02,22,1.60
2010,11,16,02,25,3.20
2010,11,16,02,26,3.20
2010,11,16,02,27,3.20
2010,11,16,02,28,3.20
2010,11,16,02,29,4.80
2010,11,16,02,31,1.60
2010,11,16,02,32,3.20
2010,11,16,02,33,1.60
2010,11,16,02,34,8.10
2010,11,16,02,35,6.40
2010,11,16,02,36,6.40
2010,11,16,02,37,1.60
2010,11,16,02,38,6.40
2010,11,16,02,39,8.10
2010,11,16,02,40,19.30
2010,11,16,02,41,8.10
2010,11,16,02,42,9.60
2010,11,16,02,43,3.20
2010,11,16,02,44,1.60
2010,11,16,02,45,16.10
2010,11,16,02,46,19.30
2010,11,16,02,47,8.10
2010,11,16,02,48,12.90
2010,11,16,02,49,19.30
2010,11,16,02,50,6.40
2010,11,16,02,51,8.10
2010,11,16,02,52,9.60
2010,11,16,02,53,12.90
2010,11,16,02,54,9.60
2010,11,16,02,55,8.10
2010,11,16,02,56,4.80
2010,11,16,02,57,4.80
2010,11,16,02,58,9.60
2010,11,16,02,59,16.10
2010,11,16,03,00,9.60
2010,11,16,03,01,6.40
2010,11,16,03,02,9.60
2010,11,16,03,03,4.80
2010,11,16,03,04,8.10
2010,11,16,03,05,6.40
2010,11,16,03,06,6.40
2010,11,16,03,07,4.80
2010,11,16,03,08,4.80
2010,11,16,03,09,4.80
2010,11,16,03,10,6.40
2010,11,16,03,11,4.80
2010,11,16,03,12,4.80
2010,11,16,03,13,3.20
2010,11,16,03,14,3.20
2010,11,16,03,15,4.80
2010,11,16,03,16,4.80
2010,11,16,03,17,3.20
2010,11,16,03,18,1.60
2010,11,16,03,21,1.60
2010,11,16,03,22,1.60
2010,11,16,03,24,1.60
2010,11,16,03,25,3.20
2010,11,16,03,26,3.20
2010,11,16,03,32,3.20
2010,11,16,03,33,1.60
2010,11,16,03,34,1.60
2010,11,16,03,35,1.60
2010,11,16,03,37,1.60
2010,11,16,03,38,3.20
2010,11,16,03,45,3.20
2010,11,16,03,46,1.60
2010,11,16,03,49,1.60
2010,11,16,03,52,1.60
2010,11,16,03,55,3.20
2010,11,16,03,56,6.40
2010,11,16,03,57,4.80
2010,11,16,03,58,1.60
2010,11,16,04,01,1.60
2010,11,16,04,03,1.60
2010,11,16,04,04,1.60
2010,11,16,04,07,1.60
2010,11,16,04,08,1.60
2010,11,16,04,09,6.40
2010,11,16,04,10,8.10
2010,11,16,04,11,4.80
2010,11,16,04,12,1.60
2010,11,16,04,13,1.60
2010,11,16,04,14,3.20
2010,11,16,04,15,1.60
2010,11,16,04,16,3.20
2010,11,16,04,17,3.20
2010,11,16,04,18,3.20
2010,11,16,04,19,1.60
2010,11,16,04,20,1.60
2010,11,16,04,21,1.60
2010,11,16,04,24,1.60
2010,11,16,04,25,1.60
2010,11,16,04,26,1.60
2010,11,16,04,27,1.60
2010,11,16,04,29,3.20
2010,11,16,04,30,3.20
2010,11,16,04,31,3.20
2010,11,16,04,32,3.20
2010,11,16,04,33,4.80
2010,11,16,04,34,3.20
2010,11,16,04,35,4.80
2010,11,16,04,36,4.80
2010,11,16,04,37,3.20
2010,11,16,04,38,4.80
2010,11,16,04,39,4.80
2010,11,16,04,40,4.80
2010,11,16,04,41,4.80
2010,11,16,04,42,6.40
2010,11,16,04,43,4.80
2010,11,16,04,44,4.80
2010,11,16,04,45,3.20
2010,11,16,04,46,4.80
2010,11,16,04,47,6.40
2010,11,16,04,48,4.80
2010,11,16,04,49,4.80
2010,11,16,04,50,4.80
2010,11,16,04,51,1.60
2010,11,16,04,52,1.60
2010,11,16,04,54,1.60
2010,11,16,05,01,1.60
2010,11,16,05,05,1.60
2010,11,16,05,06,1.60
2010,11,16,05,07,3.20
2010,11,16,05,08,3.20
2010,11,16,05,09,3.20
2010,11,16,05,10,3.20
2010,11,16,05,11,3.20
2010,11,16,05,12,3.20
2010,11,16,05,13,4.80
2010,11,16,05,14,4.80
2010,11,16,05,15,4.80
2010,11,16,05,16,4.80
2010,11,16,05,17,4.80
2010,11,16,05,18,3.20
2010,11,16,05,19,3.20
2010,11,16,05,20,3.20
2010,11,16,05,21,3.20
2010,11,16,05,23,1.60
2010,11,16,05,24,1.60
2010,11,16,05,25,1.60
2010,11,16,05,26,1.60
2010,11,16,05,27,1.60
2010,11,16,05,28,3.20
2010,11,16,05,29,3.20
2010,11,16,05,30,3.20
2010,11,16,05,31,4.80
2010,11,16,05,32,4.80
2010,11,16,05,33,4.80
2010,11,16,05,34,3.20
2010,11,16,05,35,4.80
2010,11,16,05,36,4.80
2010,11,16,05,37,4.80
2010,11,16,05,38,3.20
2010,11,16,05,39,4.80
2010,11,16,05,40,4.80
2010,11,16,05,41,4.80
2010,11,16,05,42,4.80
2010,11,16,05,43,4.80
2010,11,16,05,44,4.80
2010,11,16,05,45,6.40
2010,11,16,05,46,4.80
2010,11,16,05,47,4.80
2010,11,16,05,48,3.20
2010,11,16,05,49,3.20
2010,11,16,05,50,1.60
2010,11,16,05,51,3.20
2010,11,16,05,52,1.60
2010,11,16,05,53,1.60
2010,11,16,05,54,1.60
2010,11,16,05,55,1.60
2010,11,16,05,57,1.60
2010,11,16,05,58,3.20
2010,11,16,05,59,1.60
2010,11,16,06,00,3.20
2010,11,16,06,01,3.20
2010,11,16,06,02,3.20
2010,11,16,06,03,3.20
2010,11,16,06,04,1.60
2010,11,16,06,05,3.20
2010,11,16,06,06,3.20
2010,11,16,06,07,3.20
2010,11,16,06,08,3.20
2010,11,16,06,09,3.20
2010,11,16,06,10,3.20
2010,11,16,06,11,3.20
2010,11,16,06,12,3.20
2010,11,16,06,13,1.60
2010,11,16,06,14,1.60
2010,11,16,06,15,1.60
2010,11,16,06,16,1.60
2010,11,16,06,17,3.20
2010,11,16,06,18,1.60
2010,11,16,06,19,1.60
2010,11,16,06,22,1.60
2010,11,16,06,23,3.20
2010,11,16,06,24,1.60
2010,11,16,06,25,1.60
2010,11,16,06,28,3.20
2010,11,16,06,29,4.80
2010,11,16,06,30,4.80
2010,11,16,06,31,3.20
2010,11,16,06,32,3.20
2010,11,16,06,33,3.20
2010,11,16,06,34,3.20
2010,11,16,06,35,3.20
2010,11,16,06,36,3.20
2010,11,16,06,37,1.60
2010,11,16,06,38,3.20
2010,11,16,06,41,3.20
2010,11,16,06,42,3.20
2010,11,16,06,43,3.20
2010,11,16,06,44,3.20
2010,11,16,06,45,3.20
2010,11,16,06,46,4.80
2010,11,16,06,47,4.80
2010,11,16,06,48,3.20
2010,11,16,06,49,4.80
2010,11,16,06,50,4.80
2010,11,16,06,51,4.80
2010,11,16,06,52,3.20
2010,11,16,06,53,4.80
2010,11,16,06,54,3.20
2010,11,16,06,55,4.80
2010,11,16,06,56,4.80
2010,11,16,06,57,4.80
2010,11,16,06,58,6.40
2010,11,16,06,59,8.10
2010,11,16,07,00,8.10
2010,11,16,07,01,4.80
2010,11,16,07,02,6.40
2010,11,16,07,03,4.80
2010,11,16,07,04,6.40
2010,11,16,07,05,8.10
2010,11,16,07,06,6.40
2010,11,16,07,07,4.80
2010,11,16,07,08,6.40
2010,11,16,07,09,6.40
2010,11,16,07,10,6.40
2010,11,16,07,11,6.40
2010,11,16,07,12,6.40
2010,11,16,07,13,4.80
2010,11,16,07,14,6.40
2010,11,16,07,15,3.20
2010,11,16,07,16,3.20
2010,11,16,07,17,6.40
2010,11,16,07,18,8.10
2010,11,16,07,19,8.10
2010,11,16,07,20,8.10
2010,11,16,07,21,6.40
2010,11,16,07,22,6.40
2010,11,16,07,23,8.10
2010,11,16,07,24,8.10
2010,11,16,07,25,8.10
2010,11,16,07,26,6.40
2010,11,16,07,27,3.20
2010,11,16,07,28,3.20
2010,11,16,07,29,3.20
2010,11,16,07,30,6.40
2010,11,16,07,31,6.40
2010,11,16,07,32,6.40
2010,11,16,07,33,4.80
2010,11,16,07,34,6.40
2010,11,16,07,35,6.40
2010,11,16,07,36,8.10
2010,11,16,07,37,6.40
2010,11,16,07,38,4.80
2010,11,16,07,39,4.80
2010,11,16,07,40,1.60
2010,11,16,07,41,3.20
2010,11,16,07,42,3.20
2010,11,16,07,43,6.40
2010,11,16,07,44,4.80
2010,11,16,07,45,3.20
2010,11,16,07,46,3.20
2010,11,16,07,47,4.80
2010,11,16,07,48,6.40
2010,11,16,07,49,9.60
2010,11,16,07,50,6.40
2010,11,16,07,51,6.40
2010,11,16,07,52,4.80
2010,11,16,07,53,4.80
2010,11,16,07,54,6.40
2010,11,16,07,55,8.10
2010,11,16,07,56,4.80
2010,11,16,07,57,9.60
2010,11,16,07,58,4.80
2010,11,16,07,59,4.80
2010,11,16,08,00,4.80
2010,11,16,08,01,6.40
2010,11,16,08,02,6.40
2010,11,16,08,03,6.40
2010,11,16,08,04,6.40
2010,11,16,08,05,4.80
2010,11,16,08,06,4.80
2010,11,16,08,07,3.20
2010,11,16,08,08,3.20
2010,11,16,08,09,3.20
2010,11,16,08,10,4.80
2010,11,16,08,11,3.20
2010,11,16,08,12,3.20
2010,11,16,08,17,1.60
2010,11,16,08,25,1.60
2010,11,16,08,26,3.20
2010,11,16,08,27,3.20
2010,11,16,08,28,3.20
2010,11,16,08,29,3.20
2010,11,16,08,30,3.20
2010,11,16,08,31,3.20
2010,11,16,08,32,4.80
2010,11,16,08,33,4.80
2010,11,16,08,34,8.10
2010,11,16,08,35,6.40
2010,11,16,08,36,8.10
2010,11,16,08,37,8.10
2010,11,16,08,38,9.60
2010,11,16,08,39,8.10
2010,11,16,08,40,6.40
2010,11,16,08,41,8.10
2010,11,16,08,42,11.30
2010,11,16,08,43,9.60
2010,11,16,08,44,9.60
2010,11,16,08,45,9.60
2010,11,16,08,46,11.30
2010,11,16,08,47,9.60
2010,11,16,08,48,11.30
2010,11,16,08,49,8.10
2010,11,16,08,50,8.10
2010,11,16,08,51,8.10
2010,11,16,08,52,9.60
2010,11,16,08,53,6.40
2010,11,16,08,54,6.40
2010,11,16,08,55,6.40
2010,11,16,08,56,4.80
2010,11,16,08,57,3.20
2010,11,16,08,58,3.20
2010,11,16,09,00,1.60
2010,11,16,09,01,1.60
2010,11,16,09,02,1.60
2010,11,16,09,03,1.60
2010,11,16,09,04,3.20
2010,11,16,09,05,4.80
2010,11,16,09,06,3.20
2010,11,16,09,07,1.60
2010,11,16,09,14,3.20
2010,11,16,09,17,1.60
2010,11,16,09,18,3.20
2010,11,16,09,19,3.20
2010,11,16,09,20,3.20
2010,11,16,09,21,3.20
2010,11,16,09,23,1.60
2010,11,16,09,24,3.20
2010,11,16,09,25,3.20
2010,11,16,09,26,3.20
2010,11,16,09,27,3.20
2010,11,16,09,28,4.80
2010,11,16,09,29,4.80
2010,11,16,09,30,6.40
2010,11,16,09,31,3.20
2010,11,16,09,32,6.40
2010,11,16,09,33,4.80
2010,11,16,09,34,6.40
2010,11,16,09,35,4.80
2010,11,16,09,36,8.10
2010,11,16,09,37,6.40
2010,11,16,09,38,8.10
2010,11,16,09,39,9.60
2010,11,16,09,40,8.10
2010,11,16,09,41,9.60
2010,11,16,09,42,9.60
2010,11,16,09,43,9.60
2010,11,16,09,44,9.60
2010,11,16,09,45,11.30
2010,11,16,09,46,9.60
2010,11,16,09,47,4.80
2010,11,16,09,48,4.80
2010,11,16,09,49,4.80
2010,11,16,09,50,8.10
2010,11,16,09,51,9.60
2010,11,16,09,52,9.60
2010,11,16,09,53,9.60
2010,11,16,09,54,16.10
2010,11,16,09,55,11.30
2010,11,16,09,56,8.10
2010,11,16,09,57,9.60
2010,11,16,09,58,8.10
2010,11,16,09,59,8.10
2010,11,16,10,00,9.60
2010,11,16,10,01,8.10
2010,11,16,10,02,8.10
2010,11,16,10,03,16.10
2010,11,16,10,04,19.30
2010,11,16,10,05,9.60
2010,11,16,10,06,11.30
2010,11,16,10,07,8.10
2010,11,16,10,08,14.50
2010,11,16,10,09,9.60
2010,11,16,10,10,14.50
2010,11,16,10,11,9.60
2010,11,16,10,12,14.50
2010,11,16,10,13,11.30
2010,11,16,10,14,9.60
2010,11,16,10,15,11.30
2010,11,16,10,16,8.10
2010,11,16,10,17,8.10
2010,11,16,10,18,6.40
2010,11,16,10,19,4.80
2010,11,16,10,20,6.40
2010,11,16,10,21,6.40
2010,11,16,10,22,8.10
2010,11,16,10,23,6.40
2010,11,16,10,24,6.40
2010,11,16,10,25,8.10
2010,11,16,10,26,6.40
2010,11,16,10,27,6.40
2010,11,16,10,28,6.40
2010,11,16,10,29,8.10
2010,11,16,10,30,4.80
2010,11,16,10,31,3.20
2010,11,16,10,32,8.10
2010,11,16,10,33,8.10
2010,11,16,10,34,8.10
2010,11,16,10,35,8.10
2010,11,16,10,36,3.20
2010,11,16,10,37,6.40
2010,11,16,10,38,6.40
2010,11,16,10,39,4.80
2010,11,16,10,40,3.20
2010,11,16,10,41,1.60
2010,11,16,10,42,4.80
2010,11,16,10,43,4.80
2010,11,16,10,44,3.20
2010,11,16,10,46,1.60
2010,11,16,10,48,8.10
2010,11,16,10,49,4.80
2010,11,16,10,50,6.40
2010,11,16,10,51,8.10
2010,11,16,10,52,8.10
2010,11,16,10,53,14.50
2010,11,16,10,54,11.30
2010,11,16,10,55,16.10
2010,11,16,10,56,8.10
2010,11,16,10,57,9.60
2010,11,16,10,58,16.10
2010,11,16,10,59,11.30
2010,11,16,11,00,9.60
2010,11,16,11,01,11.30
2010,11,16,11,02,11.30
2010,11,16,11,03,8.10
2010,11,16,11,04,9.60
2010,11,16,11,05,11.30
2010,11,16,11,06,9.60
2010,11,16,11,07,11.30
2010,11,16,11,08,9.60
2010,11,16,11,09,9.60
2010,11,16,11,10,11.30
2010,11,16,11,11,11.30
2010,11,16,11,12,11.30
2010,11,16,11,13,11.30
2010,11,16,11,14,9.60
2010,11,16,11,15,11.30
2010,11,16,11,16,9.60
2010,11,16,11,17,9.60
2010,11,16,11,18,11.30
2010,11,16,11,19,11.30
2010,11,16,11,20,16.10
2010,11,16,11,21,14.50
2010,11,16,11,22,6.40
2010,11,16,11,23,11.30
2010,11,16,11,24,9.60
2010,11,16,11,25,11.30
2010,11,16,11,26,8.10
2010,11,16,11,27,6.40
2010,11,16,11,28,9.60
2010,11,16,11,29,9.60
2010,11,16,11,30,12.90
2010,11,16,11,31,14.50
2010,11,16,11,32,16.10
2010,11,16,11,33,16.10
2010,11,16,11,34,14.50
2010,11,16,11,35,17.70
2010,11,16,11,36,17.70
2010,11,16,11,37,17.70
2010,11,16,11,38,11.30
2010,11,16,11,39,8.10
2010,11,16,11,40,9.60
2010,11,16,11,41,14.50
2010,11,16,11,42,11.30
2010,11,16,11,43,9.60
2010,11,16,11,44,9.60
2010,11,16,11,45,9.60
2010,11,16,11,46,9.60
2010,11,16,11,47,8.10
2010,11,16,11,48,6.40
2010,11,16,11,49,3.20
2010,11,16,11,50,6.40
2010,11,16,11,51,11.30
2010,11,16,11,52,14.50
2010,11,16,11,53,12.90
2010,11,16,11,54,6.40
2010,11,16,11,55,8.10
2010,11,16,11,56,8.10
2010,11,16,11,57,11.30
2010,11,16,11,58,11.30
2010,11,16,11,59,9.60
2010,11,16,12,00,9.60
2010,11,16,12,01,9.60
2010,11,16,12,02,8.10
2010,11,16,12,03,6.40
2010,11,16,12,04,3.20
2010,11,16,12,05,9.60
2010,11,16,12,06,4.80
2010,11,16,12,07,6.40
2010,11,16,12,08,3.20
2010,11,16,12,09,9.60
2010,11,16,12,10,9.60
2010,11,16,12,11,8.10
2010,11,16,12,12,6.40
2010,11,16,12,13,8.10
2010,11,16,12,14,4.80
2010,11,16,12,15,6.40
2010,11,16,12,16,8.10
2010,11,16,12,17,11.30
2010,11,16,12,18,6.40
2010,11,16,12,19,6.40
2010,11,16,12,20,6.40
2010,11,16,12,21,9.60
2010,11,16,12,22,8.10
2010,11,16,12,23,8.10
2010,11,16,12,24,9.60
2010,11,16,12,25,8.10
2010,11,16,12,26,9.60
2010,11,16,12,27,4.80
2010,11,16,12,28,8.10
2010,11,16,12,29,4.80
2010,11,16,12,30,6.40
2010,11,16,12,31,6.40
2010,11,16,12,32,4.80
2010,11,16,12,33,1.60
2010,11,16,12,34,4.80
2010,11,16,12,35,3.20
2010,11,16,12,36,1.60
2010,11,16,12,39,1.60
2010,11,16,12,41,4.80
2010,11,16,12,42,4.80
2010,11,16,12,43,4.80
2010,11,16,12,44,4.80
2010,11,16,12,45,3.20
2010,11,16,12,46,6.40
2010,11,16,12,47,3.20
2010,11,16,12,48,3.20
2010,11,16,12,49,3.20
2010,11,16,12,50,3.20
2010,11,16,12,51,4.80
2010,11,16,12,52,6.40
2010,11,16,12,53,6.40
2010,11,16,12,54,6.40
2010,11,16,12,55,4.80
2010,11,16,12,56,4.80
2010,11,16,12,57,4.80
2010,11,16,12,58,1.60
2010,11,16,12,59,3.20
2010,11,16,13,00,3.20
2010,11,16,13,01,3.20
2010,11,16,13,02,3.20
2010,11,16,13,03,4.80
2010,11,16,13,04,3.20
2010,11,16,13,05,3.20
2010,11,16,13,06,1.60
2010,11,16,13,07,3.20
2010,11,16,13,09,1.60
2010,11,16,13,10,3.20
2010,11,16,13,11,4.80
2010,11,16,13,13,1.60
2010,11,16,13,14,1.60
2010,11,16,13,21,1.60
2010,11,16,13,22,1.60
2010,11,16,13,23,3.20
2010,11,16,13,24,1.60
2010,11,16,13,25,1.60
2010,11,16,13,26,3.20
2010,11,16,13,27,1.60
2010,11,16,13,28,3.20
2010,11,16,13,29,1.60
2010,11,16,13,30,1.60
2010,11,16,13,31,4.80
2010,11,16,13,32,4.80
2010,11,16,13,33,4.80
2010,11,16,13,34,4.80
2010,11,16,13,37,1.60
2010,11,16,13,38,1.60
2010,11,16,13,39,3.20
2010,11,16,13,40,3.20
2010,11,16,13,41,3.20
2010,11,16,13,42,3.20
2010,11,16,13,43,3.20
2010,11,16,13,44,3.20
2010,11,16,13,45,3.20
2010,11,16,13,46,3.20
2010,11,16,13,47,3.20
2010,11,16,13,48,3.20
2010,11,16,13,49,1.60
2010,11,16,13,51,1.60
2010,11,16,13,52,3.20
2010,11,16,13,53,1.60
2010,11,16,13,54,1.60
2010,11,16,13,55,3.20
2010,11,16,13,56,3.20
2010,11,16,13,57,1.60
2010,11,16,13,58,1.60
2010,11,16,13,59,4.80
2010,11,16,14,00,3.20
2010,11,16,14,01,3.20
2010,11,16,14,02,3.20
2010,11,16,14,04,3.20
2010,11,16,14,05,3.20
2010,11,16,14,06,3.20
2010,11,16,14,07,1.60
2010,11,16,14,08,3.20
2010,11,16,14,09,4.80
2010,11,16,14,10,3.20
2010,11,16,14,11,3.20
2010,11,16,14,12,3.20
2010,11,16,14,13,3.20
2010,11,16,14,14,1.60
2010,11,16,14,15,1.60
2010,11,16,14,16,3.20
2010,11,16,14,17,1.60
2010,11,16,14,18,3.20
2010,11,16,14,19,4.80
2010,11,16,14,20,3.20
2010,11,16,14,21,3.20
2010,11,16,14,22,3.20
2010,11,16,14,23,3.20
2010,11,16,14,24,4.80
2010,11,16,14,25,4.80
2010,11,16,14,26,3.20
2010,11,16,14,27,1.60
2010,11,16,14,28,1.60
2010,11,16,14,29,3.20
2010,11,16,14,30,4.80
2010,11,16,14,31,3.20
2010,11,16,14,32,3.20
2010,11,16,14,33,3.20
2010,11,16,14,34,3.20
2010,11,16,14,35,1.60
2010,11,16,14,36,3.20
2010,11,16,14,37,1.60
2010,11,16,14,38,1.60
2010,11,16,14,39,4.80
2010,11,16,14,40,3.20
2010,11,16,14,41,3.20
2010,11,16,14,42,1.60
2010,11,16,14,43,4.80
2010,11,16,14,44,3.20
2010,11,16,14,45,4.80
2010,11,16,14,46,3.20
2010,11,16,14,47,3.20
2010,11,16,14,48,4.80
2010,11,16,14,49,3.20
2010,11,16,14,50,3.20
2010,11,16,14,51,3.20
2010,11,16,14,52,3.20
2010,11,16,14,53,1.60
2010,11,16,14,54,1.60
2010,11,16,14,55,3.20
2010,11,16,14,56,3.20
2010,11,16,14,57,3.20
2010,11,16,14,58,1.60
2010,11,16,14,59,3.20
2010,11,16,15,00,3.20
2010,11,16,15,01,1.60
2010,11,16,15,02,1.60
2010,11,16,15,03,1.60
2010,11,16,15,04,1.60
2010,11,16,15,07,1.60
2010,11,16,15,22,1.60
2010,11,16,15,23,1.60
2010,11,16,15,24,1.60
2010,11,16,15,25,1.60
2010,11,16,15,37,1.60
2010,11,16,15,39,1.60
2010,11,16,15,40,1.60
2010,11,16,15,59,1.60
2010,11,16,16,00,1.60
2010,11,16,16,01,1.60
2010,11,16,16,02,1.60
2010,11,16,16,03,1.60
2010,11,16,16,04,3.20
2010,11,16,16,05,1.60
2010,11,16,16,07,1.60
2010,11,16,16,08,1.60
2010,11,16,16,09,1.60
2010,11,16,16,10,3.20
2010,11,16,16,11,4.80
2010,11,16,16,12,3.20
2010,11,16,16,15,1.60
2010,11,16,16,17,1.60
2010,11,16,16,18,1.60
2010,11,16,16,20,1.60
2010,11,16,16,21,3.20
2010,11,16,16,22,1.60
2010,11,16,16,23,1.60
2010,11,16,16,29,3.20
2010,11,16,16,30,3.20
2010,11,16,16,31,3.20
2010,11,16,16,32,3.20
2010,11,16,16,33,3.20
2010,11,16,16,45,3.20
2010,11,16,16,46,3.20
2010,11,16,16,47,3.20
2010,11,16,16,48,1.60
2010,11,16,16,58,1.60
2010,11,16,16,59,1.60
2010,11,16,17,11,3.20
2010,11,16,17,12,1.60
2010,11,16,17,20,1.60
2010,11,16,17,21,1.60
2010,11,16,17,28,4.80
2010,11,16,17,29,4.80
2010,11,16,17,30,4.80
2010,11,16,17,31,3.20
2010,11,16,17,32,3.20
2010,11,16,17,33,3.20
2010,11,16,17,50,1.60
2010,11,16,17,52,1.60
2010,11,16,18,28,1.60
2010,11,16,18,36,1.60
2010,11,16,18,39,1.60
2010,11,16,18,46,3.20
2010,11,16,18,47,3.20
2010,11,16,18,50,3.20
2010,11,16,18,51,3.20
2010,11,16,19,02,3.20
2010,11,16,19,03,4.80
2010,11,16,19,04,4.80
2010,11,16,19,05,3.20
2010,11,16,19,06,1.60
2010,11,16,19,10,1.60
2010,11,16,19,11,1.60
2010,11,16,19,12,3.20
2010,11,16,19,13,4.80
2010,11,16,19,14,3.20
2010,11,16,19,15,4.80
2010,11,16,19,16,11.30
2010,11,16,19,17,11.30
2010,11,16,19,18,6.40
2010,11,16,19,19,4.80
2010,11,16,19,20,3.20
2010,11,16,19,21,1.60
2010,11,16,19,22,3.20
2010,11,16,19,23,1.60
2010,11,16,19,24,1.60
2010,11,16,19,25,4.80
2010,11,16,19,26,6.40
2010,11,16,19,27,3.20
2010,11,16,19,28,3.20
2010,11,16,19,29,1.60
2010,11,16,19,30,3.20
2010,11,16,19,31,3.20
2010,11,16,19,32,3.20
2010,11,16,19,33,1.60
2010,11,16,19,34,1.60
2010,11,16,19,35,4.80
2010,11,16,19,36,11.30
2010,11,16,19,37,11.30
2010,11,16,19,38,8.10
2010,11,16,19,39,9.60
2010,11,16,19,40,4.80
2010,11,16,19,41,8.10
2010,11,16,19,42,9.60
2010,11,16,19,43,9.60
2010,11,16,19,44,8.10
2010,11,16,19,45,4.80
2010,11,16,19,46,3.20
2010,11,16,19,47,6.40
2010,11,16,19,48,8.10
2010,11,16,19,49,9.60
2010,11,16,19,50,8.10
2010,11,16,19,51,11.30
2010,11,16,19,52,6.40
2010,11,16,19,53,8.10
2010,11,16,19,54,9.60
2010,11,16,19,55,8.10
2010,11,16,19,56,9.60
2010,11,16,19,57,8.10
2010,11,16,19,58,9.60
2010,11,16,19,59,11.30
2010,11,16,20,00,11.30
2010,11,16,20,01,8.10
2010,11,16,20,02,8.10
2010,11,16,20,03,16.10
2010,11,16,20,04,16.10
2010,11,16,20,05,12.90
2010,11,16,20,06,11.30
2010,11,16,20,07,8.10
2010,11,16,20,08,11.30
2010,11,16,20,09,9.60
2010,11,16,20,10,6.40
2010,11,16,20,11,9.60
2010,11,16,20,12,9.60
2010,11,16,20,13,8.10
2010,11,16,20,14,16.10
2010,11,16,20,15,16.10
2010,11,16,20,16,8.10
2010,11,16,20,17,16.10
2010,11,16,20,18,14.50
2010,11,16,20,19,14.50
2010,11,16,20,20,16.10
2010,11,16,20,21,19.30
2010,11,16,20,22,19.30
2010,11,16,20,23,14.50
2010,11,16,20,24,9.60
2010,11,16,20,25,16.10
2010,11,16,20,26,9.60
2010,11,16,20,27,8.10
2010,11,16,20,28,6.40
2010,11,16,20,29,6.40
2010,11,16,20,30,14.50
2010,11,16,20,31,14.50
2010,11,16,20,32,11.30
2010,11,16,20,33,14.50
2010,11,16,20,34,4.80
2010,11,16,20,35,8.10
2010,11,16,20,36,4.80
2010,11,16,20,37,3.20
2010,11,16,20,38,4.80
2010,11,16,20,39,3.20
2010,11,16,20,40,8.10
2010,11,16,20,41,6.40
2010,11,16,20,42,6.40
2010,11,16,20,43,3.20
2010,11,16,20,44,4.80
2010,11,16,20,45,6.40
2010,11,16,20,46,4.80
2010,11,16,20,47,1.60
2010,11,16,20,48,9.60
2010,11,16,20,49,4.80
2010,11,16,20,50,3.20
2010,11,16,20,51,4.80
2010,11,16,20,52,4.80
2010,11,16,20,53,6.40
2010,11,16,20,54,4.80
2010,11,16,20,55,4.80
2010,11,16,20,56,1.60
2010,11,16,20,57,4.80
2010,11,16,20,58,6.40
2010,11,16,20,59,8.10
2010,11,16,21,00,4.80
2010,11,16,21,01,3.20
2010,11,16,21,02,3.20
2010,11,16,21,03,4.80
2010,11,16,21,04,8.10
2010,11,16,21,05,6.40
2010,11,16,21,06,3.20
2010,11,16,21,07,1.60
2010,11,16,21,08,3.20
2010,11,16,21,11,1.60
2010,11,16,21,14,3.20
2010,11,16,21,15,3.20
2010,11,16,21,16,3.20
2010,11,16,21,17,1.60
2010,11,16,21,18,3.20
2010,11,16,21,19,3.20
2010,11,16,21,22,1.60
2010,11,16,21,25,1.60
2010,11,16,21,26,1.60
2010,11,16,21,30,3.20
2010,11,16,21,31,1.60
2010,11,16,21,32,1.60
2010,11,16,21,34,1.60
2010,11,16,21,38,3.20
2010,11,16,21,39,6.40
2010,11,16,21,40,3.20
2010,11,16,21,41,3.20
2010,11,16,21,43,1.60
2010,11,16,21,49,1.60
2010,11,16,22,02,3.20
2010,11,16,22,03,3.20
2010,11,16,22,04,1.60
2010,11,16,22,05,3.20
2010,11,16,22,06,3.20
2010,11,16,22,07,3.20
2010,11,16,22,15,1.60
2010,11,16,22,16,4.80
2010,11,16,22,17,3.20
2010,11,16,22,18,3.20
2010,11,16,22,19,3.20
2010,11,16,22,20,3.20
2010,11,16,22,21,1.60
2010,11,16,22,26,3.20
2010,11,16,22,27,3.20
2010,11,16,22,28,1.60
2010,11,16,22,29,1.60
2010,11,16,22,33,1.60
2010,11,16,22,38,1.60
2010,11,16,22,39,4.80
2010,11,16,22,40,4.80
2010,11,16,22,41,4.80
2010,11,16,22,42,3.20
2010,11,16,22,43,3.20
2010,11,16,22,44,3.20
2010,11,16,22,45,4.80
2010,11,16,22,46,8.10
2010,11,16,22,47,6.40
2010,11,16,22,48,9.60
2010,11,16,22,49,8.10
2010,11,16,22,50,8.10
2010,11,16,22,51,6.40
2010,11,16,22,52,4.80
2010,11,16,22,53,6.40
2010,11,16,22,54,6.40
2010,11,16,22,55,11.30
2010,11,16,22,56,4.80
2010,11,16,22,57,9.60
2010,11,16,22,58,11.30
2010,11,16,22,59,9.60
2010,11,16,23,00,14.50
2010,11,16,23,01,8.10
2010,11,16,23,02,8.10
2010,11,16,23,03,6.40
2010,11,16,23,04,8.10
2010,11,16,23,05,6.40
2010,11,16,23,06,9.60
2010,11,16,23,07,8.10
2010,11,16,23,08,6.40
2010,11,16,23,09,4.80
2010,11,16,23,10,3.20
2010,11,16,23,11,11.30
2010,11,16,23,12,8.10
2010,11,16,23,13,6.40
2010,11,16,23,14,8.10
2010,11,16,23,15,1.60
2010,11,16,23,16,3.20
2010,11,16,23,17,6.40
2010,11,16,23,18,3.20
2010,11,16,23,19,4.80
2010,11,16,23,20,4.80
2010,11,16,23,22,1.60
2010,11,16,23,23,3.20
2010,11,16,23,24,1.60
2010,11,16,23,27,3.20
2010,11,16,23,28,4.80
2010,11,16,23,29,6.40
2010,11,16,23,30,3.20
2010,11,16,23,31,6.40
2010,11,16,23,32,3.20
2010,11,16,23,33,4.80
2010,11,16,23,34,16.10
2010,11,16,23,35,11.30
2010,11,16,23,36,11.30
2010,11,16,23,37,11.30
2010,11,16,23,38,16.10
2010,11,16,23,39,16.10
2010,11,16,23,40,16.10